No particular awareness of the weather is required.    There are no Weather-warnings




My webcam more information My webcam


Meteosat more information Meteosat


Radar de pluja more information rain snow radar


Visita la nostra xarxa de llocs de meteo:

Template documentation
and downloads

And another site



Select another period ( hide this area )

Unitats Periode Custom range Directly to
Mètric Imperial Tant
Diari Setmana Mensual Anual
use both date-selectors for a custom range
previous Dia
With this date

WeatherUnderground graphs for this period ( click here )


Warning: Division by zero in /var/www/vhosts/5/103384/webspace/httpdocs/santgenismeteo.org/weather28/wu/WU-History4.php on line 835
Diari Resum Dimarts 19 Novembre 2019
Temps Temp. ( °C ) Dew pt. ( °C ) Vent ( km/h ) des Rafegues ( km/h ) Pression baro ( hPa ) Humid.( % ) Rainrate ( cm ) Solar ( W/m2 )
Maxima14,7 1,4 20,9 Est ( 475/952 ) 22,4 1014,4 62 - 0
Media8,4 -1,5 5,0 Est #67/192 0,8 1012,1 50 - 0 #0/192
Minima5,4 -3,6 -   -1607,4 1010,4 38 -  
Diari Tabular details for Dimarts 19 Novembre 2019
Temps Temp. ( °C ) Dew pt. ( °C ) Vent ( km/h ) des Rafegues ( km/h ) Pression baro ( hPa ) Humid.( % ) Rainrate ( cm ) Solar ( W/m2 )
00:00 8,5 1,2 6,9 South 6,9 1011,4 60 - -
00:05 8,5 1,2 14,0 ENE 14,0 1011,4 60 - -
00:10 8,5 1,4 8,7 Est 16,9 1011,4 61 - -
00:15 8,4 1,3 2,1 Est 6,9 1011,4 61 - -
00:20 8,4 1,3 4,3 Est 8,7 1011,4 61 - -
00:25 8,3 1,4 1,8 Est 13,7 1011,4 62 - -
00:30 8,3 1,2 8,7 Est 14,8 1011,4 61 - -
00:35 8,2 1,1 4,0 SE 7,6 1011,4 61 - -
00:40 8,0 0,7 6,9 Est 13,7 1011,4 60 - -
00:45 7,9 0,8 6,1 South 8,7 1011,4 61 - -
00:50 7,8 0,5 3,2 West 11,9 1011,4 60 - -
00:55 7,7 0,4 4,0 Est 11,9 1011,4 60 - -
01:00 7,5 0,2 5,5 Est 13,0 1011,4 60 - -
01:05 7,4 0,1 11,6 Est 15,1 1011,4 60 - -
01:10 7,4 -0,1 1,8 WNW 9,3 1011,4 59 - -
01:15 7,3 -0,2 6,9 West 10,8 1011,4 59 - -
01:20 7,3 -0,2 5,8 Est 12,2 1011,4 59 - -
01:25 7,2 -0,5 9,7 ENE 20,6 1011,4 58 - -
01:30 7,2 -0,5 1,8 SW 15,1 1011,4 58 - -
01:35 7,1 -0,6 13,0 Est 15,8 1011,4 58 - -
01:40 7,0 -0,7 5,5 Est 13,7 1011,4 58 - -
01:45 7,0 -0,9 2,1 Est 13,0 1011,4 57 - -
01:50 7,0 -0,9 4,3 NW 10,5 1011,4 57 - -
01:55 6,9 -1,0   calma 10,1 1011,4 57 - -
02:00 6,9 -1,0 2,6 WNW 11,9 1011,4 57 - -
02:05 6,8 -1,1 8,7 West 8,7 1010,4 57 - -
02:10 6,8 -1,1 6,1 ENE 13,7 1010,4 57 - -
02:15 6,8 -1,4 13,0 Est 13,0 1010,4 56 - -
02:20 6,7 -1,5 7,9 Est 14,0 1010,4 56 - -
02:25 6,6 -1,6 6,4 Est 17,7 1010,4 56 - -
02:30 6,5 -1,6 9,3 WSW 14,0 1010,4 56 - -
02:35 6,5 -1,6 7,9 NE 12,6 1011,4 56 - -
02:40 6,4 -1,7 15,4 West 15,4 1011,4 56 - -
02:45 6,4 -1,7 5,0 West 15,8 1011,4 56 - -
02:50 6,4 -1,7 9,3 NW 9,3 1010,4 56 - -
02:55 6,3 -1,8 7,9 Est 7,9 1010,4 56 - -
03:00 6,3 -1,8 6,4 Est 11,1 1010,4 56 - -
03:05 6,3 -1,8 4,3 Est 9,3 1011,4 56 - -
03:10 6,3 -2,1 17,7 Est 17,7 1011,4 55 - -
03:15 6,3 -2,1 6,1 Est 16,9 1011,4 55 - -
03:20 6,2 -2,2 3,2 WNW 11,9 1011,4 55 - -
03:25 6,2 -2,2 16,3 WNW 16,3 1011,4 55 - -
03:30 6,1 -2,3 9,7 Est 11,6 1011,4 55 - -
03:35 6,0 -2,4 6,4 WNW 11,1 1011,4 55 - -
03:40 5,9 -2,2 9,0 Est 16,9 1011,4 56 - -
03:45 5,8 -2,3 2,6 Est 12,2 1011,4 56 - -
03:50 5,8 -2,3 7,6 Est 17,7 1011,4 56 - -
03:55 5,7 -2,4 17,7 ENE 17,7 1011,4 56 - -
04:00 5,6 -2,5 6,1 Est 20,6 1011,4 56 - -
04:05 5,6 -2,5 11,9 Est 17,7 1011,4 56 - -
04:10 5,5 -2,6 20,9 Est 20,9 1011,4 56 - -
04:15 5,5 -2,6 6,1 Est 20,1 1011,4 56 - -
04:20 5,5 -2,6 17,7 ESE 21,6 1010,4 56 - -
04:25 5,6 -2,7 2,1 Est 21,9 1010,4 55 - -
04:30 5,6 -2,7 17,2 Est 17,2 1010,4 55 - -
04:35 5,7 -2,6 4,7 Est 16,9 1010,4 55 - -
04:40 5,7 -2,6 4,7 WNW 9,0 1010,4 55 - -
04:45 5,7 -2,6 9,0 Est 16,6 1010,4 55 - -
04:50 5,7 -2,9 13,7 NE 16,6 1010,4 54 - -
04:55 5,7 -2,9 6,4 Est 15,8 1010,4 54 - -
05:00 5,7 -2,9 4,0 Est 10,1 1010,4 54 - -
05:05 5,7 -2,9 17,7 Est 19,5 1010,4 54 - -
05:10 5,6 -3,0 8,7 ESE 14,0 1010,4 54 - -
05:15 5,6 -3,0 3,2 Est 16,9 1010,4 54 - -
05:20 5,5 -3,1 6,4 WNW 10,5 1011,4 54 - -
05:25 5,4 -3,2 14,0 Est 17,7 1011,4 54 - -
05:30 5,4 -3,2 9,7 Est 9,7 1011,4 54 - -
05:35 5,4 -3,2 10,1 WSW 12,2 1011,4 54 - -
05:40 5,4 -3,2 5,0 WSW 12,6 1011,4 54 - -
05:45 5,4 -3,2 5,5 Est 19,1 1011,4 54 - -
05:50 5,4 -3,2 3,2 ENE 16,6 1010,4 54 - -
05:55 5,4 -3,2 4,3 West 7,9 1010,4 54 - -
06:00 5,4 -3,2 9,0 WNW 22,4 1010,4 54 - -
06:05 5,4 -3,2 6,1 West 15,8 1010,4 54 - -
06:10 5,4 -3,2 6,9 ENE 19,1 1010,4 54 - -
06:15 5,4 -3,2 6,4 ENE 12,2 1010,4 54 - -
06:20 5,4 -3,2 9,0 Est 11,9 1011,4 54 - -
06:25 5,4 -3,2 4,7 West 13,0 1011,4 54 - -
06:30 5,4 -3,2 11,9 ESE 16,3 1011,4 54 - -
06:35 5,4 -3,2 7,6 WSW 11,6 1011,4 54 - -
06:40 5,4 -3,2 4,0 WNW 20,6 1011,4 54 - -
06:45 5,4 -3,2 2,1 West 10,5 1011,4 54 - -
06:50 5,5 -3,3 4,3 ENE 12,2 1011,4 53 - -
06:55 5,6 -3,2 4,0 SW 9,7 1011,4 53 - -
07:00 5,7 -3,1 5,0 NNW 13,7 1011,4 53 - -
07:05 5,8 -3,3 1,4 WSW 4,0 1011,4 52 - -
07:10 5,8 -3,3 8,7 WSW 9,0 1011,4 52 - -
07:15 6,0 -3,4 3,5 WNW 16,6 1011,4 51 - -
07:20 6,1 -3,3 5,8 Est 9,7 1011,4 51 - -
07:25 6,2 -3,2 5,8 Est 8,7 1011,4 51 - -
07:30 6,1 -3,3 12,6 ENE 12,6 1011,4 51 - -
07:35 6,0 -3,4 17,2 ENE 17,2 1011,4 51 - -
07:40 5,8 -3,3 8,7 Est 10,1 1011,4 52 - -
07:45 5,6 -3,5 5,8 Est 11,6 1011,4 52 - -
07:50 5,5 -3,6 17,7 Est 17,7 1012,4 52 - -
07:55 5,6 -3,5 6,9 ENE 12,2 1012,4 52 - -
08:00 5,6 -3,5 5,5 Est 18,0 1012,4 52 - -
08:05 5,7 -3,4 7,6 ENE 16,9 1012,4 52 - -
08:10 5,8 -3,3 7,6 ENE 7,6 1012,4 52 - -
08:15 5,8 -3,3 9,3 ESE 13,0 1012,4 52 - -
08:20 5,6 -3,5 10,1 Est 10,1 1013,4 52 - -
08:25 5,6 -3,5 2,6 West 6,9 1013,4 52 - -
08:30 5,8 -3,3 9,7 WSW 9,7 1013,4 52 - -
08:35 6,0 -3,1 4,0 West 15,1 1013,4 52 - -
08:40 6,1 -3,3 5,8 Est 12,6 1013,4 51 - -
08:45 6,4 -3,0 15,4 West 15,4 1013,4 51 - -
08:50 6,6 -2,8 5,8 Est 9,0 1013,4 51 - -
08:55 6,8 -2,9 6,9 Est 6,9 1013,4 50 - -
09:00 6,9 -2,8 5,0 Est 11,1 1013,4 50 - -
09:05 6,9 -2,8   calma 12,6 1014,4 50 - -
09:10 6,8 -2,9 9,3 Est 9,3 1014,4 50 - -
09:15 6,8 -2,9 6,9 South 9,3 1014,4 50 - -
09:20 7,0 -2,7   calma 9,0 1014,4 50 - -
09:25 7,3 -2,4   calma 4,0 1014,4 50 - -
09:30 7,5 -2,3 2,6 West 5,0 1014,4 50 - -
09:35 7,6 -2,2 2,1 SE 9,0 1013,4 50 - -
09:40 7,7 -2,3   calma 6,4 1013,4 49 - -
09:45 7,9 -2,2   calma 4,3 1013,4 49 - -
09:50 8,0 -2,1 5,5 WSW 8,7 1013,4 49 - -
09:55 8,1 -2,0 4,3 West 6,9 1013,4 49 - -
10:00 8,2 -1,9 5,8 Est 5,8 1013,4 49 - -
10:05 8,4 -1,7 1,8 WSW 4,0 1012,4 49 - -
10:10 8,5 -1,9   calma   1012,4 48 - -
10:15 8,7 -1,4   calma 1,8 1012,4 49 - -
10:20 8,6 -1,8 5,5 Est 9,0 1012,4 48 - -
10:25 8,6 -1,8 4,7 Est 5,5 1012,4 48 - -
10:30 8,6 -1,8   calma 8,7 1012,4 48 - -
10:35 8,7 -1,7 3,2 Est 6,4 1012,4 48 - -
10:40 8,8 -1,3 2,6 ENE 4,0 1012,4 49 - -
10:45 9,0 -1,4   calma 6,1 1012,4 48 - -
10:50 9,1 -1,3 1,4 WNW 3,2 1013,4 48 - -
10:55 9,3 -1,2 2,6 West 5,8 1013,4 48 - -
11:00 9,7 -0,8   calma   1013,4 48 - -
11:05 9,9 -0,6 3,2 WNW 4,3 1013,4 48 - -
11:10 10,1 -0,7   calma 3,2 1013,4 47 - -
11:15 10,2 -0,6 3,5 SSW 3,5 1013,4 47 - -
11:20 10,3 -0,5   calma 2,6 1013,4 47 - -
11:25 10,4 -0,4   calma 4,7 1013,4 47 - -
11:30 10,4 -0,7 1,8 SE 1,8 1013,4 46 - -
11:35 10,4 -0,4   calma 3,2 1013,4 47 - -
11:40 10,5 -0,6 5,0 Est 5,0 1013,4 46 - -
11:45 10,6 -0,5 5,0 Est 5,0 1013,4 46 - -
11:50 10,6 -0,5 5,0 Est 5,0 1013,4 46 - -
11:55 10,8 -0,4   calma   1013,4 46 - -
12:00 10,9 -0,3   calma   1013,4 46 - -
12:05 10,9 -0,6   calma 1,8 1013,4 45 - -
12:10 10,9 -0,6   calma 6,4 1013,4 45 - -
12:15 10,9 -0,9 5,8 Est 5,8 1013,4 44 - -
12:20 11,0 -0,8 1,4 SE 4,7 1014,4 44 - -
12:25 11,1 -0,7 1,4 SE 1,4 1014,4 44 - -
12:30 11,2 -0,6 1,4 SE 1,4 1014,4 44 - -
12:35 11,3 -0,5   calma   1013,4 44 - -
12:40 11,3 -0,8   calma   1013,4 43 - -
12:45 11,5 -0,7 3,5 West 4,7 1013,4 43 - -
12:50 11,6 -0,6   calma 3,5 1013,4 43 - -
12:55 11,6 -0,9 4,0 WNW 4,0 1013,4 42 - -
13:00 11,6 -0,9 2,1 Est 2,1 1013,4 42 - -
13:05 11,9 -0,3 4,7 Est 4,7 1013,4 43 - -
13:10 11,9 -0,6 1,8 WSW 1,8 1013,4 42 - -
13:15 12,0 -0,9   calma   1013,4 41 - -
13:20 12,0 -0,9 5,5 Est 5,5 1013,4 41 - -
13:25 12,1 -1,1   calma 3,2 1013,4 40 - -
13:30 12,2 -0,7   calma 3,2 1013,4 41 - -
13:35 12,4 -0,5   calma 3,5 1012,4 41 - -
13:40 12,4 -0,8   calma 2,6 1012,4 40 - -
13:45 12,5 -0,7   calma 4,0 1012,4 40 - -
13:50 12,5 -0,7   calma 1,4 1012,4 40 - -
13:55 12,6 -0,6   calma 4,0 1012,4 40 - -
14:00 12,6 -0,6   calma 1,4 1012,4 40 - -
14:05 12,7 -0,2   calma 5,8 1012,4 41 - -
14:10 12,6 -0,6 1,4 Est 6,4 1012,4 40 - -
14:15 12,5 -0,7   calma 5,0 1012,4 40 - -
14:20 12,5 -0,7   calma 3,2 1012,4 40 - -
14:25 12,7 -0,6   calma   1012,4 40 - -
14:30 13,0 -0,3 1,4 Est 4,3 1012,4 40 - -
14:35 13,4 0,1 1,4 Est 1,8 1012,4 40 - -
14:40 13,7 0,3 6,1 NE 6,1 1012,4 40 - -
14:45 13,9 0,5   calma 4,0 1012,4 40 - -
14:50 14,1 0,3   calma 4,3 1011,4 39 - -
14:55 14,2 0,4   calma 1,4 1011,4 39 - -
15:00 14,5 0,7   calma   1011,4 39 - -
15:05 14,5 0,7   calma   1011,4 39 - -
15:10 14,6 0,8   calma   1011,4 39 - -
15:15 14,5 0,3   calma   1011,4 38 - -
15:20 14,6 0,8   calma   1012,4 39 - -
15:25 14,7 0,9   calma   1012,4 39 - -
15:30 14,7 0,9   calma   1012,4 39 - -
15:35 14,7 0,9   calma   1012,4 39 - -
15:40 14,6 0,8   calma   1012,4 39 - -
15:45 14,7 0,9   calma -1607,4 1012,4 39 - -
15:50 14,5 0,3   calma 1,8 1012,4 38 - -
15:55 14,4 0,3   calma   1012,4 38 - -
Diari Resum Dimarts 19 Novembre 2019
Temps Temp. ( °C ) Dew pt. ( °C ) Vent ( km/h ) des Rafegues ( km/h ) Pression baro ( hPa ) Humid.( % ) Rainrate ( cm ) Solar ( W/m2 )
Maxima14,7 1,4 20,9 Est ( 475/952 ) 22,4 1014,4 62 - 0
Media8,4 -1,5 5,0 Est #67/192 0,8 1012,1 50 - 0 #0/192
Minima5,4 -3,6 -   -1607,4 1010,4 38 -  
Diari Tabular details for Dimarts 19 Novembre 2019
Temps Temp. ( °C ) Dew pt. ( °C ) Vent ( km/h ) des Rafegues ( km/h ) Pression baro ( hPa ) Humid.( % ) Rainrate ( cm ) Solar ( W/m2 )
00:00 8,5 1,2 6,9 South 6,9 1011,4 60 - -
00:05 8,5 1,2 14,0 ENE 14,0 1011,4 60 - -
00:10 8,5 1,4 8,7 Est 16,9 1011,4 61 - -
00:15 8,4 1,3 2,1 Est 6,9 1011,4 61 - -
00:20 8,4 1,3 4,3 Est 8,7 1011,4 61 - -
00:25 8,3 1,4 1,8 Est 13,7 1011,4 62 - -
00:30 8,3 1,2 8,7 Est 14,8 1011,4 61 - -
00:35 8,2 1,1 4,0 SE 7,6 1011,4 61 - -
00:40 8,0 0,7 6,9 Est 13,7 1011,4 60 - -
00:45 7,9 0,8 6,1 South 8,7 1011,4 61 - -
00:50 7,8 0,5 3,2 West 11,9 1011,4 60 - -
00:55 7,7 0,4 4,0 Est 11,9 1011,4 60 - -
01:00 7,5 0,2 5,5 Est 13,0 1011,4 60 - -
01:05 7,4 0,1 11,6 Est 15,1 1011,4 60 - -
01:10 7,4 -0,1 1,8 WNW 9,3 1011,4 59 - -
01:15 7,3 -0,2 6,9 West 10,8 1011,4 59 - -
01:20 7,3 -0,2 5,8 Est 12,2 1011,4 59 - -
01:25 7,2 -0,5 9,7 ENE 20,6 1011,4 58 - -
01:30 7,2 -0,5 1,8 SW 15,1 1011,4 58 - -
01:35 7,1 -0,6 13,0 Est 15,8 1011,4 58 - -
01:40 7,0 -0,7 5,5 Est 13,7 1011,4 58 - -
01:45 7,0 -0,9 2,1 Est 13,0 1011,4 57 - -
01:50 7,0 -0,9 4,3 NW 10,5 1011,4 57 - -
01:55 6,9 -1,0   calma 10,1 1011,4 57 - -
02:00 6,9 -1,0 2,6 WNW 11,9 1011,4 57 - -
02:05 6,8 -1,1 8,7 West 8,7 1010,4 57 - -
02:10 6,8 -1,1 6,1 ENE 13,7 1010,4 57 - -
02:15 6,8 -1,4 13,0 Est 13,0 1010,4 56 - -
02:20 6,7 -1,5 7,9 Est 14,0 1010,4 56 - -
02:25 6,6 -1,6 6,4 Est 17,7 1010,4 56 - -
02:30 6,5 -1,6 9,3 WSW 14,0 1010,4 56 - -
02:35 6,5 -1,6 7,9 NE 12,6 1011,4 56 - -
02:40 6,4 -1,7 15,4 West 15,4 1011,4 56 - -
02:45 6,4 -1,7 5,0 West 15,8 1011,4 56 - -
02:50 6,4 -1,7 9,3 NW 9,3 1010,4 56 - -
02:55 6,3 -1,8 7,9 Est 7,9 1010,4 56 - -
03:00 6,3 -1,8 6,4 Est 11,1 1010,4 56 - -
03:05 6,3 -1,8 4,3 Est 9,3 1011,4 56 - -
03:10 6,3 -2,1 17,7 Est 17,7 1011,4 55 - -
03:15 6,3 -2,1 6,1 Est 16,9 1011,4 55 - -
03:20 6,2 -2,2 3,2 WNW 11,9 1011,4 55 - -
03:25 6,2 -2,2 16,3 WNW 16,3 1011,4 55 - -
03:30 6,1 -2,3 9,7 Est 11,6 1011,4 55 - -
03:35 6,0 -2,4 6,4 WNW 11,1 1011,4 55 - -
03:40 5,9 -2,2 9,0 Est 16,9 1011,4 56 - -
03:45 5,8 -2,3 2,6 Est 12,2 1011,4 56 - -
03:50 5,8 -2,3 7,6 Est 17,7 1011,4 56 - -
03:55 5,7 -2,4 17,7 ENE 17,7 1011,4 56 - -
04:00 5,6 -2,5 6,1 Est 20,6 1011,4 56 - -
04:05 5,6 -2,5 11,9 Est 17,7 1011,4 56 - -
04:10 5,5 -2,6 20,9 Est 20,9 1011,4 56 - -
04:15 5,5 -2,6 6,1 Est 20,1 1011,4 56 - -
04:20 5,5 -2,6 17,7 ESE 21,6 1010,4 56 - -
04:25 5,6 -2,7 2,1 Est 21,9 1010,4 55 - -
04:30 5,6 -2,7 17,2 Est 17,2 1010,4 55 - -
04:35 5,7 -2,6 4,7 Est 16,9 1010,4 55 - -
04:40 5,7 -2,6 4,7 WNW 9,0 1010,4 55 - -
04:45 5,7 -2,6 9,0 Est 16,6 1010,4 55 - -
04:50 5,7 -2,9 13,7 NE 16,6 1010,4 54 - -
04:55 5,7 -2,9 6,4 Est 15,8 1010,4 54 - -
05:00 5,7 -2,9 4,0 Est 10,1 1010,4 54 - -
05:05 5,7 -2,9 17,7 Est 19,5 1010,4 54 - -
05:10 5,6 -3,0 8,7 ESE 14,0 1010,4 54 - -
05:15 5,6 -3,0 3,2 Est 16,9 1010,4 54 - -
05:20 5,5 -3,1 6,4 WNW 10,5 1011,4 54 - -
05:25 5,4 -3,2 14,0 Est 17,7 1011,4 54 - -
05:30 5,4 -3,2 9,7 Est 9,7 1011,4 54 - -
05:35 5,4 -3,2 10,1 WSW 12,2 1011,4 54 - -
05:40 5,4 -3,2 5,0 WSW 12,6 1011,4 54 - -
05:45 5,4 -3,2 5,5 Est 19,1 1011,4 54 - -
05:50 5,4 -3,2 3,2 ENE 16,6 1010,4 54 - -
05:55 5,4 -3,2 4,3 West 7,9 1010,4 54 - -
06:00 5,4 -3,2 9,0 WNW 22,4 1010,4 54 - -
06:05 5,4 -3,2 6,1 West 15,8 1010,4 54 - -
06:10 5,4 -3,2 6,9 ENE 19,1 1010,4 54 - -
06:15 5,4 -3,2 6,4 ENE 12,2 1010,4 54 - -
06:20 5,4 -3,2 9,0 Est 11,9 1011,4 54 - -
06:25 5,4 -3,2 4,7 West 13,0 1011,4 54 - -
06:30 5,4 -3,2 11,9 ESE 16,3 1011,4 54 - -
06:35 5,4 -3,2 7,6 WSW 11,6 1011,4 54 - -
06:40 5,4 -3,2 4,0 WNW 20,6 1011,4 54 - -
06:45 5,4 -3,2 2,1 West 10,5 1011,4 54 - -
06:50 5,5 -3,3 4,3 ENE 12,2 1011,4 53 - -
06:55 5,6 -3,2 4,0 SW 9,7 1011,4 53 - -
07:00 5,7 -3,1 5,0 NNW 13,7 1011,4 53 - -
07:05 5,8 -3,3 1,4 WSW 4,0 1011,4 52 - -
07:10 5,8 -3,3 8,7 WSW 9,0 1011,4 52 - -
07:15 6,0 -3,4 3,5 WNW 16,6 1011,4 51 - -
07:20 6,1 -3,3 5,8 Est 9,7 1011,4 51 - -
07:25 6,2 -3,2 5,8 Est 8,7 1011,4 51 - -
07:30 6,1 -3,3 12,6 ENE 12,6 1011,4 51 - -
07:35 6,0 -3,4 17,2 ENE 17,2 1011,4 51 - -
07:40 5,8 -3,3 8,7 Est 10,1 1011,4 52 - -
07:45 5,6 -3,5 5,8 Est 11,6 1011,4 52 - -
07:50 5,5 -3,6 17,7 Est 17,7 1012,4 52 - -
07:55 5,6 -3,5 6,9 ENE 12,2 1012,4 52 - -
08:00 5,6 -3,5 5,5 Est 18,0 1012,4 52 - -
08:05 5,7 -3,4 7,6 ENE 16,9 1012,4 52 - -
08:10 5,8 -3,3 7,6 ENE 7,6 1012,4 52 - -
08:15 5,8 -3,3 9,3 ESE 13,0 1012,4 52 - -
08:20 5,6 -3,5 10,1 Est 10,1 1013,4 52 - -
08:25 5,6 -3,5 2,6 West 6,9 1013,4 52 - -
08:30 5,8 -3,3 9,7 WSW 9,7 1013,4 52 - -
08:35 6,0 -3,1 4,0 West 15,1 1013,4 52 - -
08:40 6,1 -3,3 5,8 Est 12,6 1013,4 51 - -
08:45 6,4 -3,0 15,4 West 15,4 1013,4 51 - -
08:50 6,6 -2,8 5,8 Est 9,0 1013,4 51 - -
08:55 6,8 -2,9 6,9 Est 6,9 1013,4 50 - -
09:00 6,9 -2,8 5,0 Est 11,1 1013,4 50 - -
09:05 6,9 -2,8   calma 12,6 1014,4 50 - -
09:10 6,8 -2,9 9,3 Est 9,3 1014,4 50 - -
09:15 6,8 -2,9 6,9 South 9,3 1014,4 50 - -
09:20 7,0 -2,7   calma 9,0 1014,4 50 - -
09:25 7,3 -2,4   calma 4,0 1014,4 50 - -
09:30 7,5 -2,3 2,6 West 5,0 1014,4 50 - -
09:35 7,6 -2,2 2,1 SE 9,0 1013,4 50 - -
09:40 7,7 -2,3   calma 6,4 1013,4 49 - -
09:45 7,9 -2,2   calma 4,3 1013,4 49 - -
09:50 8,0 -2,1 5,5 WSW 8,7 1013,4 49 - -
09:55 8,1 -2,0 4,3 West 6,9 1013,4 49 - -
10:00 8,2 -1,9 5,8 Est 5,8 1013,4 49 - -
10:05 8,4 -1,7 1,8 WSW 4,0 1012,4 49 - -
10:10 8,5 -1,9   calma   1012,4 48 - -
10:15 8,7 -1,4   calma 1,8 1012,4 49 - -
10:20 8,6 -1,8 5,5 Est 9,0 1012,4 48 - -
10:25 8,6 -1,8 4,7 Est 5,5 1012,4 48 - -
10:30 8,6 -1,8   calma 8,7 1012,4 48 - -
10:35 8,7 -1,7 3,2 Est 6,4 1012,4 48 - -
10:40 8,8 -1,3 2,6 ENE 4,0 1012,4 49 - -
10:45 9,0 -1,4   calma 6,1 1012,4 48 - -
10:50 9,1 -1,3 1,4 WNW 3,2 1013,4 48 - -
10:55 9,3 -1,2 2,6 West 5,8 1013,4 48 - -
11:00 9,7 -0,8   calma   1013,4 48 - -
11:05 9,9 -0,6 3,2 WNW 4,3 1013,4 48 - -
11:10 10,1 -0,7   calma 3,2 1013,4 47 - -
11:15 10,2 -0,6 3,5 SSW 3,5 1013,4 47 - -
11:20 10,3 -0,5   calma 2,6 1013,4 47 - -
11:25 10,4 -0,4   calma 4,7 1013,4 47 - -
11:30 10,4 -0,7 1,8 SE 1,8 1013,4 46 - -
11:35 10,4 -0,4   calma 3,2 1013,4 47 - -
11:40 10,5 -0,6 5,0 Est 5,0 1013,4 46 - -
11:45 10,6 -0,5 5,0 Est 5,0 1013,4 46 - -
11:50 10,6 -0,5 5,0 Est 5,0 1013,4 46 - -
11:55 10,8 -0,4   calma   1013,4 46 - -
12:00 10,9 -0,3   calma   1013,4 46 - -
12:05 10,9 -0,6   calma 1,8 1013,4 45 - -
12:10 10,9 -0,6   calma 6,4 1013,4 45 - -
12:15 10,9 -0,9 5,8 Est 5,8 1013,4 44 - -
12:20 11,0 -0,8 1,4 SE 4,7 1014,4 44 - -
12:25 11,1 -0,7 1,4 SE 1,4 1014,4 44 - -
12:30 11,2 -0,6 1,4 SE 1,4 1014,4 44 - -
12:35 11,3 -0,5   calma   1013,4 44 - -
12:40 11,3 -0,8   calma   1013,4 43 - -
12:45 11,5 -0,7 3,5 West 4,7 1013,4 43 - -
12:50 11,6 -0,6   calma 3,5 1013,4 43 - -
12:55 11,6 -0,9 4,0 WNW 4,0 1013,4 42 - -
13:00 11,6 -0,9 2,1 Est 2,1 1013,4 42 - -
13:05 11,9 -0,3 4,7 Est 4,7 1013,4 43 - -
13:10 11,9 -0,6 1,8 WSW 1,8 1013,4 42 - -
13:15 12,0 -0,9   calma   1013,4 41 - -
13:20 12,0 -0,9 5,5 Est 5,5 1013,4 41 - -
13:25 12,1 -1,1   calma 3,2 1013,4 40 - -
13:30 12,2 -0,7   calma 3,2 1013,4 41 - -
13:35 12,4 -0,5   calma 3,5 1012,4 41 - -
13:40 12,4 -0,8   calma 2,6 1012,4 40 - -
13:45 12,5 -0,7   calma 4,0 1012,4 40 - -
13:50 12,5 -0,7   calma 1,4 1012,4 40 - -
13:55 12,6 -0,6   calma 4,0 1012,4 40 - -
14:00 12,6 -0,6   calma 1,4 1012,4 40 - -
14:05 12,7 -0,2   calma 5,8 1012,4 41 - -
14:10 12,6 -0,6 1,4 Est 6,4 1012,4 40 - -
14:15 12,5 -0,7   calma 5,0 1012,4 40 - -
14:20 12,5 -0,7   calma 3,2 1012,4 40 - -
14:25 12,7 -0,6   calma   1012,4 40 - -
14:30 13,0 -0,3 1,4 Est 4,3 1012,4 40 - -
14:35 13,4 0,1 1,4 Est 1,8 1012,4 40 - -
14:40 13,7 0,3 6,1 NE 6,1 1012,4 40 - -
14:45 13,9 0,5   calma 4,0 1012,4 40 - -
14:50 14,1 0,3   calma 4,3 1011,4 39 - -
14:55 14,2 0,4   calma 1,4 1011,4 39 - -
15:00 14,5 0,7   calma   1011,4 39 - -
15:05 14,5 0,7   calma   1011,4 39 - -
15:10 14,6 0,8   calma   1011,4 39 - -
15:15 14,5 0,3   calma   1011,4 38 - -
15:20 14,6 0,8   calma   1012,4 39 - -
15:25 14,7 0,9   calma   1012,4 39 - -
15:30 14,7 0,9   calma   1012,4 39 - -
15:35 14,7 0,9   calma   1012,4 39 - -
15:40 14,6 0,8   calma   1012,4 39 - -
15:45 14,7 0,9   calma -1607,4 1012,4 39 - -
15:50 14,5 0,3   calma 1,8 1012,4 38 - -
15:55 14,4 0,3   calma   1012,4 38 - -

Download your copy of this data-set  here

Our weather-data as stored at Weather Underground. Guio original per Jim McMurry. Adaptat per a la plantilla per Leuven-Template.eu

Trobareu la nostra informacio del temps tambe a:

European Weather Network

WeatherCloud

Weather Underground

Meteoclimatic

Equip utilitzat:

Weather-program
Weather Display

Weather-server
RaspberryPI 2

Proveidor

Weather Display

RaspberryPI 2